Location: Trois-Rivi�res
(46.3500°N, 72.5500°W)
Time: 07:26:47
(UTC-04:00)

Cosmos 1544 - Visible Passes

Search period start: 16 September 2014 00:00
Search period end: 26 September 2014 00:00
Orbit: 501 x 524 km, 82.5° (Epoch: 15 September)

Date Brightness Start Highest point End Pass type
(mag) Time Alt. Az. Time Alt. Az. Time Alt. Az.
22 Sep 6.3 22:10:18 11° N 22:10:18 11° N 22:10:23 10° N visible
23 Sep 6.1 21:54:08 12° N 21:54:08 12° N 21:54:24 10° N visible
24 Sep 5.9 21:37:55 13° N 21:37:55 13° N 21:38:23 10° N visible
25 Sep 5.7 21:21:39 15° N 21:21:39 15° N 21:22:19 10° N visible
